[[{"header":{"parameterUnit":"m.s-1","parameterCategory":1,"la1":30.2991,"la2":30.254,"lo1":-89.0895,"lo2":-89.0444,"dy":0.0017,"dx":0.0017,"nx":28,"ny":28,"refTime":"2025-08-28T09:00:00:Z","depth":0,"parameterNumber":2,"parameterNumberName":"U-component_of_WINDS"},"data":[0,0,0,0,0,0,0,0,0,0,0,0,0,0,0,0,0,0,0,0,0,0,0,0,0,0,0,0,0,0,0,0,0,0,0,0,0,0,0,0,0,0,0,0,0,0,0,0,0,0,0,0,0,0,0,0,0,0,-3.719,-3.719,0,-3.7261,-3.7262,-3.7263,-3.7226,-3.7224,-3.7222,-3.7221,-3.7292,-3.7296,-3.73,0,0,0,0,0,0,0,0,0,0,0,0,0,-3.702,-3.7023,-3.719,-3.719,-3.7191,-3.7261,-3.7262,-3.7263,-3.7227,-3.7224,-3.7222,-3.722,-3.7291,-3.7296,-3.73,0,0,0,0,0,0,0,0,0,0,0,0,0,-3.7093,-3.7024,-3.7189,-3.7182,-3.7182,-3.7261,-3.7262,-3.7263,-3.7227,-3.7224,-3.7221,-3.7219,-3.729,-3.7295,-3.7301,-3.7391,0,0,-3.7317,-3.732,0,0,0,0,0,0,0,0,-3.7089,-3.7099,-3.7182,-3.7182,-3.7182,-3.7232,-3.7229,-3.7306,-3.7228,-3.721,-3.7221,-3.7217,-3.7275,-3.7281,-3.7301,-3.7395,-3.7398,-3.7318,-3.7321,-3.7324,-3.7325,0,0,0,0,0,0,0,-3.7084,-3.7096,-3.7218,-3.7183,-3.7183,-3.7174,-3.7181,-3.7243,-3.7257,-3.7211,-3.7209,-3.7218,-3.7274,-3.7295,-3.7302,-3.7399,-3.7318,-3.7323,-3.7326,-3.7328,-3.7572,-3.7575,0,0,0,0,0,0,-3.7079,-3.7092,-3.7216,-3.722,-3.7128,-3.7179,-3.7188,-3.7219,-3.7256,-3.7259,-3.722,-3.7216,-3.7287,-3.7296,-3.7305,-3.7413,-3.7324,-3.7329,-3.7332,-3.7568,-3.7572,-3.7576,0,0,0,0,0,0,-3.7076,-3.7091,-3.7213,-3.7155,-3.717,-3.7185,-3.7221,-3.7222,-3.7243,-3.7263,-3.7265,-3.7239,-3.7286,-3.7297,-3.737,-3.7415,-3.7331,-3.7336,-3.7565,-3.757,-3.7574,-3.7631,0,0,0,0,0,0,-3.7071,-3.7089,-3.7124,-3.7156,-3.7173,-3.7278,-3.7224,-3.7225,-3.7253,-3.7248,-3.7282,-3.7285,-3.7284,-3.7362,-3.7376,-3.7421,-3.7341,-3.7561,-3.7567,-3.7572,-3.7625,-3.7637,-3.7647,0,0,0,0,0,-3.7065,-3.7137,-3.7126,-3.7141,-3.7217,-3.728,-3.729,-3.7288,-3.7257,-3.7291,-3.7305,-3.7284,-3.7409,-3.737,-3.7385,-3.7432,-3.7558,-3.7565,-3.7572,-3.762,-3.7634,-3.7647,0,0,0,0,0,0,-3.7108,-3.7141,-3.7129,-3.7214,-3.7245,-3.7274,-3.7317,-3.7304,-3.7343,-3.7337,-3.7333,-3.7341,-3.7417,-3.7433,-3.7389,-3.7523,-3.7478,-3.7489,-3.7509,-3.7523,-3.7534,-3.7528,-3.7345,0,0,0,0,0,-3.7128,-3.7177,-3.7203,-3.7275,-3.7291,-3.7302,-3.7329,-3.7326,-3.7357,-3.737,-3.7388,-3.7419,-3.7465,-3.7496,-3.7539,-3.7628,-3.7634,-3.7668,-3.7679,-3.7688,-3.7696,-3.7744,-3.7759,-3.7599,-3.7599,-3.7599,0,0,-3.7168,-3.7192,-3.7223,-3.7284,-3.7307,-3.7358,-3.7313,-3.7368,-3.7405,-3.7378,-3.7448,-3.7463,-3.7498,-3.7579,-3.7616,-3.7594,-3.7743,-3.7697,-3.7704,-3.7708,-3.7753,-3.7768,-3.7782,-3.7604,-3.7603,-3.7602,0,0,-3.7267,-3.7291,-3.7353,-3.7378,-3.7415,-3.7422,-3.7437,-3.7469,-3.7478,-3.7549,-3.753,-3.7575,-3.7654,-3.768,-3.7703,-3.7814,-3.7796,-3.7829,-3.7885,-3.7932,-3.7945,-3.7956,-3.7994,-3.8008,-3.7837,-3.7838,-3.7838,0,-3.7312,-3.7388,-3.7387,-3.7444,-3.7471,-3.7451,-3.7514,-3.7538,-3.7587,-3.7606,-3.7581,-3.7681,-3.7703,-3.779,-3.7817,-3.7837,-3.7854,-3.7823,-3.7943,-3.7954,-3.7965,-3.8001,-3.8016,-3.7841,-3.7841,-3.784,-3.784,0,-3.7441,-3.7494,-3.754,-3.7589,-3.7622,-3.7681,-3.7689,-3.7723,-3.7717,-3.7727,-3.78,-3.7826,-3.7874,-3.7895,-3.789,-3.7982,-3.7967,-3.7943,-3.7898,-3.7983,-3.8018,-3.8032,-3.7846,-3.7845,-3.7844,-3.7843,0,0,-3.7566,-3.7616,-3.7632,-3.7654,-3.7694,-3.7735,-3.7794,-3.7842,-3.7871,-3.7906,-3.7955,-3.8024,-3.8003,-3.8029,-3.8027,-3.8068,-3.8154,-3.8039,-3.804,-3.8058,-3.8256,-3.8272,-3.8288,-3.8143,-3.8146,-3.8148,-3.8252,0,-3.7667,-3.7771,-3.7773,-3.7867,-3.7916,-3.7899,-3.795,-3.798,-3.7992,-3.8034,-3.8047,-3.8096,-3.8064,-3.808,-3.8121,-3.8135,-3.8193,-3.8128,-3.8188,-3.819,-3.8177,-3.8306,-3.8323,-3.842,-3.8266,-3.8268,-3.827,0,-3.7797,-3.7837,-3.7937,-3.7971,-3.7991,-3.8038,-3.8083,-3.8124,-3.8158,-3.8164,-3.8195,-3.8187,-3.8247,-3.8203,-3.8285,-3.8241,-3.8266,-3.8277,-3.8281,-3.8284,-3.8233,-3.8311,-3.8451,-3.8464,-3.8291,-3.829,-3.8288,0,-3.7876,-3.7956,-3.8026,-3.8045,-3.8087,-3.812,-3.8139,-3.817,-3.82,-3.8239,-3.8258,-3.8304,-3.8329,-3.8365,-3.837,-3.8337,-3.8453,-3.8408,-3.8458,-3.8458,-3.848,-3.8479,-3.8624,-3.8501,-3.8501,-3.85,-3.85,0,-3.7987,-3.8048,-3.8062,-3.8105,-3.8173,-3.8176,-3.8244,-3.826,-3.8288,-3.8334,-3.8323,-3.8365,-3.837,-3.8415,-3.8419,-3.8487,-3.8498,-3.8504,-3.8504,-3.8504,-3.8503,-3.8518,-3.851,-3.8504,-3.8503,-3.8503,-3.8502,0,-3.8085,-3.8097,-3.8172,-3.8207,-3.8217,-3.8265,-3.8294,-3.8335,-3.8347,-3.8405,-3.8418,-3.8436,-3.8488,-3.8497,-3.8558,-3.8561,-3.8641,-3.8636,-3.863,-3.8628,-3.8677,-3.8671,-3.8835,-3.8856,-3.8721,-3.8723,-3.8724,0,-3.8153,-3.82,-3.824,-3.827,-3.8291,-3.834,-3.837,-3.8375,-3.8407,-3.8451,-3.8486,-3.8537,-3.8578,-3.8662,-3.868,-3.8726,-3.872,-3.8775,-3.8727,-3.8725,-3.8719,-3.8715,-3.8719,-3.8783,-3.8784,-3.8786,-3.8787,0,-3.8273,-3.8277,-3.8321,-3.8368,-3.8405,-3.8442,-3.8477,-3.8502,-3.8512,-3.8549,-3.8602,-3.8634,-3.8697,-3.8747,-3.8795,-3.8814,-3.8802,-3.8802,-3.8816,-3.8814,-3.8808,-3.881,-3.8652,-3.8797,-3.8796,-3.8795,-3.8795,-3.8794,-3.8357,-3.8398,-3.8432,-3.8482,-3.851,-3.8543,-3.8583,-3.8601,-3.8646,-3.8697,-3.8699,-3.8757,-3.8791,-3.8853,-3.8876,-3.8921,-3.8904,-3.8924,-3.8928,-3.8932,-3.8936,-3.8804,-3.893,-3.893,-3.8929,-3.8929,-3.8929,0,-3.8473,-3.8496,-3.8542,-3.8592,-3.8631,-3.8619,-3.8658,-3.8691,-3.8743,-3.8776,-3.8817,-3.8879,-3.8928,-3.8952,-3.9,-3.9032,-3.9028,-3.9045,-3.9041,-3.9045,-3.895,-3.8932,-3.9047,-3.9047,-3.9047,-3.9047,-3.9047,-3.9047,-3.8539,-3.8607,-3.8616,-3.8698,-3.872,-3.8777,-3.88,-3.8831,-3.8858,-3.8927,-3.8969,-3.8984,-3.9014,-3.9065,-3.911,-3.9115,-3.9133,-3.9152,-3.9155,-3.9064,-3.9052,-3.9041,-3.9024,-3.9156,-3.9156,-3.9246,-3.9247,-3.9247]},{"header":{"parameterUnit":"m.s-1","parameterCategory":1,"la1":30.2991,"la2":30.254,"lo1":-89.0895,"lo2":-89.0444,"dy":0.0017,"dx":0.0017,"nx":28,"ny":28,"refTime":"2025-08-28T09:00:00:Z","depth":0,"parameterNumber":3,"parameterNumberName":"V-component_of_WINDS"},"data":[0,0,0,0,0,0,0,0,0,0,0,0,0,0,0,0,0,0,0,0,0,0,0,0,0,0,0,0,0,0,0,0,0,0,0,0,0,0,0,0,0,0,0,0,0,0,0,0,0,0,0,0,0,0,0,0,0,0,0.1639,0.1639,0,0.1644,0.1644,0.1644,0.1676,0.1677,0.1678,0.1678,0.168,0.168,0.1679,0,0,0,0,0,0,0,0,0,0,0,0,0,0.1656,0.1655,0.1639,0.1639,0.1639,0.1644,0.1644,0.1644,0.1676,0.1677,0.1678,0.1679,0.1681,0.168,0.1679,0,0,0,0,0,0,0,0,0,0,0,0,0,0.1653,0.1655,0.1639,0.1655,0.1657,0.1644,0.1644,0.1644,0.1676,0.1677,0.1678,0.1679,0.1681,0.168,0.1679,0.1649,0,0,0.1676,0.1675,0,0,0,0,0,0,0,0,0.1653,0.1653,0.1653,0.1654,0.1656,0.1661,0.1651,0.1645,0.1675,0.1668,0.1678,0.168,0.1673,0.1672,0.1671,0.1649,0.1649,0.1676,0.1675,0.1675,0.1674,0,0,0,0,0,0,0,0.1653,0.1653,0.1641,0.1653,0.1655,0.1662,0.1663,0.165,0.1664,0.1669,0.1672,0.1672,0.1674,0.1671,0.1671,0.1649,0.1676,0.1675,0.1674,0.1674,0.1605,0.1604,0,0,0,0,0,0,0.1652,0.1652,0.164,0.1641,0.1658,0.1661,0.1662,0.1658,0.1664,0.1666,0.1671,0.1673,0.1673,0.1672,0.1671,0.1637,0.1675,0.1674,0.1673,0.1606,0.1605,0.1603,0,0,0,0,0,0,0.1652,0.165,0.164,0.1647,0.1647,0.166,0.1654,0.1657,0.1655,0.1665,0.1668,0.1666,0.1674,0.1672,0.1655,0.1638,0.1673,0.1672,0.1608,0.1606,0.1604,0.1569,0,0,0,0,0,0,0.1652,0.165,0.1639,0.1647,0.1646,0.1624,0.1653,0.1656,0.1654,0.1657,0.1661,0.1663,0.1674,0.1656,0.1654,0.1637,0.1671,0.1609,0.1607,0.1605,0.1572,0.1566,0.1561,0,0,0,0,0,0.1653,0.1628,0.1638,0.1636,0.1632,0.1623,0.1622,0.1636,0.1652,0.1641,0.1648,0.1663,0.164,0.1654,0.1652,0.1634,0.161,0.1607,0.1605,0.1574,0.1567,0.1561,0,0,0,0,0,0,0.1615,0.1629,0.1641,0.1617,0.1619,0.1628,0.1614,0.1629,0.1625,0.1628,0.1645,0.1646,0.1626,0.1628,0.1643,0.1607,0.1628,0.1625,0.1605,0.1599,0.1594,0.1593,0.1671,0,0,0,0,0,0.1605,0.1597,0.1609,0.1587,0.1587,0.1601,0.1597,0.1608,0.161,0.161,0.1616,0.1617,0.161,0.1605,0.1599,0.1573,0.1574,0.156,0.1555,0.155,0.1547,0.1535,0.1529,0.1594,0.1594,0.1595,0,0,0.1582,0.1589,0.1582,0.158,0.1582,0.1573,0.1601,0.159,0.1583,0.1608,0.1593,0.1597,0.1599,0.1577,0.1568,0.1579,0.153,0.1547,0.1543,0.1542,0.1531,0.1525,0.1519,0.1593,0.1593,0.1593,0,0,0.1536,0.154,0.1523,0.1526,0.153,0.154,0.1536,0.1544,0.1548,0.1533,0.1552,0.1545,0.1532,0.1533,0.1532,0.149,0.1504,0.1487,0.146,0.1448,0.1443,0.1438,0.1424,0.1418,0.1484,0.1484,0.1484,0,0.1507,0.1495,0.1513,0.1501,0.15,0.1524,0.1508,0.1509,0.1511,0.1509,0.1522,0.1508,0.1511,0.1491,0.1481,0.1479,0.1475,0.1486,0.1442,0.1438,0.1434,0.142,0.1415,0.1482,0.1482,0.1483,0.1483,0,0.1459,0.1451,0.1437,0.144,0.1437,0.1422,0.1438,0.1433,0.1445,0.1454,0.1439,0.1444,0.144,0.1436,0.1447,0.1418,0.1425,0.144,0.1461,0.1425,0.1413,0.1408,0.1479,0.148,0.1481,0.1481,0,0,0.1388,0.1403,0.1397,0.14,0.1408,0.1401,0.1389,0.1387,0.1382,0.1383,0.1373,0.1364,0.1378,0.1377,0.1389,0.1378,0.1345,0.1395,0.1395,0.1385,0.1314,0.1303,0.1296,0.1356,0.1355,0.1354,0.1314,0,0.1344,0.1324,0.1341,0.1318,0.1311,0.1335,0.1325,0.1328,0.1336,0.1331,0.134,0.1333,0.1353,0.1352,0.1343,0.1351,0.1331,0.1354,0.1346,0.1345,0.1344,0.129,0.1277,0.1239,0.131,0.1309,0.1308,0,0.129,0.1291,0.1267,0.1279,0.1276,0.1266,0.1267,0.1262,0.1267,0.1273,0.1273,0.1289,0.1277,0.13,0.1285,0.13,0.1298,0.1302,0.1301,0.13,0.1324,0.1287,0.1228,0.1222,0.13,0.1301,0.1302,0,0.1241,0.1236,0.1221,0.1223,0.1235,0.1228,0.1233,0.1239,0.1238,0.1238,0.1237,0.1236,0.1235,0.1234,0.1248,0.1263,0.1231,0.1255,0.1236,0.1236,0.1228,0.1228,0.1167,0.1227,0.1227,0.1227,0.1227,0,0.119,0.1175,0.12,0.1191,0.1175,0.1195,0.1178,0.1185,0.1192,0.1185,0.1206,0.1198,0.1219,0.1214,0.1225,0.1211,0.121,0.1215,0.1218,0.1213,0.1213,0.1211,0.1214,0.1226,0.1226,0.1226,0.1226,0,0.1131,0.1148,0.1134,0.1148,0.1151,0.1139,0.1151,0.1143,0.1154,0.1145,0.1144,0.116,0.1156,0.1171,0.1168,0.1176,0.1156,0.1163,0.1154,0.1157,0.1138,0.1139,0.1073,0.1066,0.1131,0.113,0.113,0,0.1098,0.1087,0.1101,0.1098,0.1103,0.1098,0.1097,0.1117,0.1115,0.1122,0.1113,0.1111,0.111,0.1102,0.1113,0.1112,0.1119,0.1097,0.1119,0.1115,0.1119,0.112,0.1119,0.1091,0.109,0.109,0.1089,0,0.1036,0.1045,0.1044,0.1046,0.1045,0.1047,0.105,0.1047,0.1068,0.1065,0.1062,0.1061,0.106,0.1058,0.1059,0.1064,0.108,0.1083,0.1078,0.1072,0.1068,0.107,0.1141,0.1083,0.1084,0.1084,0.1085,0.1085,0.0989,0.0981,0.099,0.0988,0.0994,0.0997,0.0991,0.1002,0.1,0.1001,0.1014,0.1008,0.1015,0.1019,0.1023,0.1019,0.1029,0.1023,0.1021,0.1019,0.1016,0.1069,0.1019,0.1019,0.1019,0.102,0.102,0,0.0929,0.0937,0.0935,0.094,0.0939,0.0956,0.0962,0.0959,0.0955,0.0961,0.096,0.0957,0.0955,0.0968,0.0968,0.0962,0.097,0.0961,0.0962,0.0963,0.1006,0.101,0.0956,0.0956,0.0956,0.0956,0.0956,0.0956,0.0897,0.0885,0.0896,0.0887,0.0895,0.0891,0.0893,0.0896,0.0901,0.0897,0.0897,0.0905,0.0914,0.0915,0.0915,0.0919,0.0918,0.0907,0.0913,0.0953,0.0959,0.0965,0.0969,0.0906,0.0906,0.087,0.0869,0.0869]}]]